Погода в Краснополье

Украина / Николаевская область     46°51′48″N   31°14′56″E
темп.,
°C
ветер,
м/с
пор.,
м/с
влажн.,
%
обл.,
%
осадки,
мм/ч
давл.,
гПа
погр.,
м
11 мая, вт
вт1100:00+10с23644 0.0 102233
03:00+9ссз346025 0.0 102144
06:00+8ссз4966100 0.0 1020148
09:00+12ссз61262100 0.0 1019462
12:00+15ссз795796 0.0 1018611
15:00+21с894873 0.0 10151346
18:00+20с51057100 0.0 1014353
21:00+15всв498319 0.6 1015223
12 мая, ср
ср1200:00+13в258555 0.0 1015178
03:00+10св348899 0.0 101479
06:00+9всв47793 0.0 1014236
09:00+12св55652 0.0 1014744
12:00+15св444862 0.0 10131760
15:00+16всв334575 0.0 10131777
18:00+14в2354100 0.0 1013906
21:00+12вюв116290 0.0 101227
13 мая, чт
чт1300:00+10юв117257 0.0 101215
03:00+10всв1173100 0.1 101234
06:00+10всв3475100 0.0 101297
09:00+14вюв5560100 0.0 1012649
12:00+17юв6758100 0.0 1011965
15:00+17ююв566587 0.0 1011684
18:00+16ю3461100 0.0 1010405
21:00+13ююв347832 0.1 101074
14 мая, пт
пт1400:00+12ююв3683100 0.0 100997
03:00+11ю46905 0.0 1009115
06:00+11ю33915 0.0 100938
09:00+17ююв5668100 0.0 1009465
12:00+19ю67625 0.1 1009626
15:00+19ю676438 0.1 1009643
18:00+18ю587199 0.0 1009359
21:00+14ююв489168 0.0 1010172
15 мая, сб
сб1500:00+14юз48912 0.0 1010119
03:00+13зюз228299 0.0 101111
06:00+14ю118384 0.0 101112
09:00+19ююз35656 0.0 1012450
12:00+22ю56547 0.0 1013897
15:00+21ю6652100 0.0 1012723
18:00+19ю566331 0.0 1012357
21:00+14ю3588100 0.0 101277